Weather History for KMHK - February, 2013

Change the Weather History Date:

Sunday, February 17, 2013

  Actual Average Record
Temperature  
Mean Temperature 44 °F 33 °F  
Max Temperature 68 °F 46 °F - ()
Min Temperature 20 °F 21 °F - ()
Degree Days  
Heating Degree Days 21 32  
Month to date heating degree days 473 568  
Since 1 July heating degree days 3403 3834  
Cooling Degree Days 0 0  
Month to date cooling degree days 0 0  
Year to date cooling degree days 0 0  
Moisture  
Dew Point 26 °F    
Average Humidity 54    
Maximum Humidity 84    
Minimum Humidity 24    
Precipitation  
Precipitation 0.00 in 0.04 in - ()
Month to date precipitation 0.64 0.61  
Year to date precipitation 1.33 1.26  
Sea Level Pressure  
Sea Level Pressure 29.83 in    
Wind  
Wind Speed 5 mph (South)    
Max Wind Speed 17 mph    
Max Gust Speed 22 mph    
Visibility 10 miles    
Events      
T = Trace of Precipitation, MM = Missing Value Source: NWS Daily Summary

Daily Weather History Graph

Daily Weather History Graph

Search for Another Location

Airport or City:

Trip Planner

Search our weather history database for the weather conditions in past years. The results will help you decide how hot, cold, wet, or windy it might be!

Date:

Astronomy

Feb. 17, 2013 Rise Set
Actual Time 7:15 AM CST 6:06 PM CST
Civil Twilight 6:48 AM CST 6:33 PM CST
Nautical Twilight 6:16 AM CST 7:05 PM CST
Astronomical Twilight 5:45 AM CST 7:36 PM CST
Moon 11:12 AM CST (2/17) 12:59 AM CST (2/17)
Length of Visible Light 11h 45m
Length of Day
10h 51m
Waxing Crescent, 49% of the Moon is Illuminated
Feb 17
Waxing Crescent
Feb 17
First Quarter
Feb 25
Full
Mar 4
Last Quarter
Mar 11
New

Hourly Weather History & Observations

Time (CST) Temp. Windchill Dew Point Humidity Pressure Visibility Wind Dir Wind Speed Gust Speed Precip Events Conditions
12:52 AM 28.0 °F - 19.0 °F 69% 30.03 in 10.0 mi Calm Calm - N/A   Clear
1:52 AM 25.0 °F - 18.0 °F 75% 30.02 in 10.0 mi Calm Calm - N/A   Clear
2:52 AM 25.0 °F - 18.0 °F 75% 30.02 in 10.0 mi Calm Calm - N/A   Clear
3:52 AM 26.1 °F - 18.0 °F 71% 30.00 in 10.0 mi Calm Calm - N/A   Clear
4:52 AM 24.1 °F - 18.0 °F 77% 30.00 in 10.0 mi Calm Calm - N/A   Clear
5:52 AM 23.0 °F - 18.0 °F 81% 29.99 in 10.0 mi Calm Calm - N/A   Clear
6:52 AM 21.9 °F - 17.1 °F 82% 29.97 in 10.0 mi Calm Calm - N/A   Clear
7:52 AM 24.1 °F - 18.0 °F 77% 29.98 in 10.0 mi Calm Calm - N/A   Clear
8:52 AM 30.9 °F 27.5 °F 23.0 °F 72% 29.95 in 10.0 mi NE 3.5 mph - N/A   Clear
9:52 AM 37.9 °F - 26.1 °F 62% 29.94 in 10.0 mi Calm Calm - N/A   Clear
10:52 AM 46.9 °F - 28.9 °F 50% 29.91 in 10.0 mi Calm Calm - N/A   Clear
11:52 AM 57.0 °F - 30.9 °F 37% 29.86 in 10.0 mi South 8.1 mph - N/A   Clear
12:52 PM 62.1 °F - 30.0 °F 30% 29.81 in 10.0 mi South 9.2 mph - N/A   Clear
1:52 PM 64.9 °F - 30.0 °F 27% 29.77 in 10.0 mi SSE 12.7 mph - N/A   Clear
2:52 PM 66.9 °F - 28.9 °F 24% 29.73 in 10.0 mi South 12.7 mph - N/A   Clear
3:52 PM 68.0 °F - 30.0 °F 24% 29.69 in 10.0 mi South 15.0 mph 21.9 mph N/A   Clear
4:52 PM 64.0 °F - 30.9 °F 29% 29.68 in 10.0 mi SSE 13.8 mph - N/A   Clear
5:52 PM 59.0 °F - 30.9 °F 35% 29.67 in 10.0 mi SSE 11.5 mph - N/A   Clear
6:52 PM 55.9 °F - 30.9 °F 39% 29.67 in 10.0 mi South 9.2 mph - N/A   Clear
7:52 PM 51.1 °F - 30.9 °F 46% 29.66 in 10.0 mi SSW 4.6 mph - N/A   Clear
8:52 PM 52.0 °F - 32.0 °F 47% 29.63 in 10.0 mi South 8.1 mph - N/A   Clear
9:52 PM 51.1 °F - 30.9 °F 46% 29.61 in 10.0 mi SSW 6.9 mph - N/A   Clear
11:52 PM 48.0 °F - 30.0 °F 50% 29.57 in 10.0 mi Variable 4.6 mph - N/A   Clear